Dewpoint
69 69 68 67 67 67 67 68 68 70 69 68 67 67 66 65 64 64 66 66 65 64 64 63 65 66 65 63 61 61 60 62 64
70 69 68 68 66 65 68 68 68 69 69 68 68 67 66 64 64 64 64 65 65 62 62 63 65 66 66 64 62 60 60 61 63
69 69 69 68 66 65 67 68 68 68 69 68 68 67 65 64 64 64 66 65 63 61 61 62 63 66 65 65 63 60 59 60 63
69 69 68 67 66 65 66 68 68 68 68 69 68 66 65 65 64 63 66 65 64 63 60 61 63 65 65 65 62 61 60 60 63
68 68 67 66 66 66 65 66 67 68 68 68 66 66 66 65 64 63 63 66 66 64 63 61 62 65 65 64 63 61 60 60 62
67 67 66 65 65 65 64 65 66 67 67 67 66 66 66 65 64 63 63 64 65 65 64 61 61 64 65 64 62 61 60 59 61
64 64 65 65 65 66 65 65 66 66 66 65 65 66 66 65 64 63 64 65 65 64 63 62 61 63 64 64 63 62 61 60 60
63 63 64 64 64 65 65 66 63 62 63 63 64 65 65 64 64 63 65 64 65 64 64 62 62 62 64 64 64 64 64 62 61
61 62 62 62 63 64 61 60 60 60 60 60 60 61 64 64 64 64 64 64 65 64 63 64 63 63 64 64 64 63 63 63 63
62 61 60 60 60 59 59 59 58 58 58 58 58 58 58 62 63 64 64 64 65 64 63 64 63 64 64 63 64 63 62 63 63
61 60 59 59 59 59 59 58 57 57 56 56 56 57 57 57 60 63 64 64 64 64 64 63 63 63 63 63 63 64 64 64 64
60 59 58 59 59 57 57 56 57 56 55 54 53 53 54 55 56 59 63 63 63 64 65 64 64 63 63 63 63 63 64 64 64
58 56 55 55 56 56 55 54 51 49 50 49 48 48 49 50 52 55 58 62 64 64 64 64 65 65 63 63 63 64 64 64 64
57 55 53 54 54 54 53 52 51 48 45 44 43 43 45 45 46 49 53 58 63 65 65 65 66 66 65 65 65 64 63 63 62
55 53 52 53 52 51 50 49 48 46 43 41 41 40 40 42 43 44 48 52 57 61 65 65 65 65 66 65 63 62 62 61 60
52 52 52 52 52 50 49 46 44 43 44 43 43 42 41 40 40 41 44 47 51 55 61 62 63 63 64 63 62 61 60 59 59
49 51 51 52 51 49 47 47 45 43 45 45 44 43 44 41 39 39 41 42 45 50 54 59 60 61 61 61 60 59 59 58 57
46 46 47 47 50 48 48 48 47 45 45 46 46 43 44 41 39 38 38 39 42 45 49 52 56 57 59 59 58 58 57 56 55
42 45 45 45 46 47 47 48 48 48 45 43 41 41 41 43 42 39 38 38 39 41 45 46 51 55 55 55 55 55 54 53 52
38 40 43 44 44 43 42 42 42 44 47 44 39 39 39 40 41 39 39 39 37 38 41 44 45 50 52 53 54 53 53 51 51
Wind_Speed
18 17 15 15 20 22 21 19 19 22 23 23 24 23 20 18 16 15 13 14 24 22 21 19 20 21 26 26 25 25 23 20 20
16 16 17 16 21 21 23 22 20 23 24 25 24 22 20 17 16 14 12 15 24 23 22 20 20 21 24 27 26 25 23 20 19
15 16 16 17 18 23 26 28 29 27 25 26 25 22 20 15 15 12 13 20 23 23 22 20 20 19 25 25 26 24 23 21 18
15 14 16 16 18 22 27 29 29 29 27 27 25 24 21 16 13 13 14 21 23 24 23 21 20 19 24 25 24 23 23 22 20
15 15 16 17 18 21 25 27 26 29 28 26 24 24 23 16 15 13 15 20 21 25 23 22 21 20 23 24 23 22 22 23 21
9 10 14 15 17 19 20 25 26 27 26 24 25 24 14 16 14 14 17 18 22 24 24 22 23 21 23 23 23 22 22 22 22
7 6 10 16 18 15 15 24 20 16 13 15 23 15 14 14 16 14 20 20 25 25 23 23 21 22 24 23 23 25 23 23 22
7 7 6 11 14 13 16 18 16 17 14 9 9 11 15 13 14 16 19 21 26 26 25 25 23 24 25 24 24 24 25 23 23
6 7 8 11 10 8 13 8 19 19 17 13 10 5 8 13 11 15 24 24 25 27 28 27 26 25 26 27 24 24 23 23 22
8 8 8 10 13 14 10 20 18 21 18 15 12 8 7 3 6 11 23 25 25 28 29 28 28 27 28 27 25 25 24 22 21
11 11 10 11 12 15 14 12 18 20 19 17 13 7 7 8 3 7 16 25 27 28 30 30 29 29 28 28 25 24 23 20 25
13 12 11 11 11 13 14 17 18 14 14 17 12 10 8 4 4 2 8 16 26 28 30 30 29 28 29 30 28 25 25 27 27
15 14 12 10 14 14 15 17 17 13 11 11 11 11 9 6 5 4 3 6 16 25 29 28 28 29 30 33 30 30 29 27 27
16 15 15 11 12 12 15 11 19 18 15 16 11 8 10 7 7 6 7 3 9 17 25 28 30 32 32 35 35 32 31 27 26
15 14 17 16 13 12 13 14 11 14 18 16 15 11 9 9 11 8 6 9 8 2 20 21 22 27 31 32 32 30 30 28 26
10 13 16 15 16 14 14 15 18 11 15 16 12 12 12 13 7 7 9 11 5 8 18 12 17 19 24 26 28 28 27 26 25
8 9 7 12 16 16 17 17 11 5 13 8 7 6 5 9 12 10 10 9 7 11 15 14 18 18 17 21 22 23 24 23 22
10 11 14 9 9 18 18 17 16 16 10 6 9 7 6 5 5 9 9 10 7 4 15 9 15 18 18 22 23 20 20 20 20
13 8 14 13 14 7 10 8 2 13 18 5 3 5 7 8 7 2 4 8 6 7 12 10 8 16 16 19 19 23 22 21 21
14 14 8 11 14 16 14 14 12 6 9 5 4 5 3 7 6 8 5 2 7 7 9 9 6 9 16 18 18 22 20 23 22
Wind_Direction
178 178 184 177 161 160 159 174 166 151 149 146 147 146 136 131 132 131 131 127 129 125 121 118 115 114 118 113 113 107 104 103 97
182 179 180 183 177 174 168 167 185 162 152 150 149 146 139 139 140 141 143 135 128 129 130 131 123 117 123 121 114 112 110 109 101
187 186 187 186 190 189 177 177 183 164 159 155 151 146 145 142 147 148 153 139 139 139 134 135 132 125 123 123 118 115 114 114 108
199 198 195 193 191 189 187 181 181 164 164 157 153 150 148 148 154 146 140 148 148 143 140 142 141 133 130 123 120 120 119 119 116
206 207 209 200 194 191 191 181 180 170 164 157 153 152 152 152 152 150 157 160 147 145 145 148 148 141 133 125 123 124 123 121 123
211 221 212 200 199 201 198 187 180 178 165 154 154 153 162 154 155 160 173 167 154 151 148 148 151 145 133 127 127 127 127 125 125
162 176 203 192 185 185 195 177 159 154 156 158 157 158 162 159 159 172 177 177 160 156 150 149 152 149 137 136 136 134 131 127 126
140 131 157 189 192 188 178 163 145 141 129 122 148 165 161 163 167 177 176 171 166 158 153 150 155 155 146 146 141 135 133 129 126
149 137 142 149 158 153 136 148 125 124 114 101 89 61 161 167 177 184 174 177 171 163 159 155 158 160 158 152 145 137 133 133 130
150 144 136 136 135 136 148 148 128 115 106 98 92 67 23 82 175 186 184 177 176 168 166 164 164 158 153 149 148 141 138 138 139
150 143 146 137 136 138 137 147 118 115 104 101 99 81 55 15 12 220 195 182 178 176 171 171 169 163 160 155 149 141 137 149 146
145 138 144 146 129 125 120 99 105 113 127 118 108 103 71 32 354 277 195 192 184 182 178 176 174 170 165 161 152 145 141 133 132
146 142 140 132 133 135 135 132 114 103 102 110 115 106 95 52 24 0 44 179 193 190 183 178 176 172 166 165 152 145 135 129 123
156 149 147 136 135 143 139 135 136 130 109 105 85 92 92 71 26 21 62 108 198 191 183 174 170 167 154 151 145 138 130 125 123
151 150 151 145 138 131 124 124 110 127 121 95 80 52 64 72 50 359 48 66 83 264 159 160 160 152 149 140 138 136 131 130 127
143 156 158 152 154 146 132 118 123 115 129 111 82 60 50 58 39 13 31 59 33 75 92 112 133 128 130 136 138 137 133 132 133
72 135 158 157 146 147 152 148 143 131 175 139 109 114 28 25 24 29 34 22 24 83 105 132 128 121 132 126 129 135 139 141 141
85 93 101 85 147 161 162 164 166 160 196 181 135 142 178 142 18 16 28 20 38 57 100 100 125 130 135 129 134 140 144 149 151
34 77 102 90 98 107 142 164 287 167 174 165 80 90 142 165 159 3 9 11 31 25 90 79 112 126 128 133 140 146 150 158 157
41 35 66 122 106 97 79 69 60 6 166 139 150 103 79 110 143 161 163 351 21 33 51 93 73 129 138 139 155 151 161 160 158